sat.trackr.live / text

‹ back to catalog

STARLINK-1202

NORAD 45183 · 2020-012F

PAYLOAD ACTIVE UNKNOWN

§ Identity

Operator
Country
US
Launch date
2020-02-17
Launch site
AFETR
Launch vehicle
Mass (kg)
RCS (m²)

Purposes: comms

External: N2YO · Heavens-Above · Gunter

§ Orbital elements

Epoch: 2026-05-25T03:00:02.820096Z

Period
93.91 min
Inclination
53.1567°
Eccentricity
0.0002761
Mean motion
15.33422970 rev/d
Perigee alt
463.7 km
Apogee alt
467.5 km
Semi-major
6,843.7 km
B*
1.1312e-3
RAAN
43.6911°
Arg perigee
118.1851°
Mean anomaly
241.9430°
Rev number
34,666

§ Raw data

STARLINK-12021 45183U 20012F   26145.12503264  .00036868  00000+0  11312-2 0  99972 45183  53.1567  43.6911 0002761 118.1851 241.9430 15.33422970346669

JSON: /api/v1/satellites/45183 · /tle

For live sub-satellite position, see the globe view (requires WebGL).

§ Visibility from observer

Set your observer location to see the next 7 days of passes ≥ 10°. The values pass through the URL so the page stays shareable.

No JS? Fill the form by hand. The geolocation button needs JavaScript.